CAPE
0 13 24 8 27 12 0 12 108 381 351 408 545 529 149 82 47 265 437 448 666 586 283 0 0 0 0 0 0 0 0 0 0 0 0 0 0 0 0 1 0 0 0 0
0 0 0 0 0 0 3 76 250 243 217 359 572 433 175 183 386 236 436 437 556 575 591 42 0 0 0 0 0 0 0 0 0 0 0 0 0 0 1 0 0 0 0 2
0 0 0 2 50 79 138 126 184 175 168 201 286 339 337 339 404 303 249 214 248 527 557 421 15 0 0 0 0 0 0 0 0 0 0 0 0 0 0 0 0 1 2 1
0 0 0 13 33 42 84 46 140 151 117 10 108 28 313 290 169 178 225 206 106 106 563 501 268 2 0 0 0 0 0 0 0 0 0 2 3 0 1 0 0 1 0 1
0 0 0 13 2 51 104 135 182 132 95 74 246 4 238 129 116 56 14 10 0 18 421 330 302 37 0 0 0 0 0 0 0 0 0 2 3 4 4 0 3 0 0 1
0 0 0 14 35 97 112 145 107 70 36 77 116 39 3 101 88 0 0 0 0 73 308 336 241 35 0 0 0 0 0 0 0 0 3 7 14 11 7 2 2 0 0 1
0 0 1 50 49 107 137 177 97 116 89 28 135 61 0 89 57 19 0 11 9 135 334 325 196 17 0 0 0 0 0 0 0 0 1 3 9 20 17 3 2 2 0 0
6 30 4 37 38 71 168 157 52 42 22 15 61 0 0 55 109 158 54 44 69 171 280 236 135 2 0 0 0 0 0 0 0 0 0 1 3 10 22 7 7 2 0 0
0 5 3 4 0 60 189 42 59 19 98 47 1 0 73 97 154 234 138 105 288 222 286 299 227 0 0 0 0 0 0 0 0 0 0 1 1 7 15 15 13 4 3 1
1 34 37 2 0 0 55 33 57 82 27 13 27 0 0 0 65 234 211 235 406 442 400 292 103 0 0 0 0 0 0 0 0 0 0 0 0 2 9 19 19 16 8 4
6 22 101 71 51 71 22 39 59 48 36 0 25 37 0 0 37 78 222 271 314 321 239 149 3 0 0 0 0 0 0 0 0 0 0 0 2 2 7 13 21 21 13 8
32 64 31 64 103 52 68 101 142 51 77 64 3 39 0 144 214 332 189 151 198 195 119 25 0 0 0 0 0 0 0 0 0 0 0 0 1 5 8 11 17 33 25 14
26 69 31 89 126 113 124 164 138 230 138 11 47 64 140 259 364 361 144 164 167 147 81 0 0 0 0 0 0 0 0 0 0 0 0 0 0 5 10 13 12 27 40 20
46 300 67 11 46 68 122 134 114 170 94 47 81 58 117 233 135 183 247 79 39 97 54 0 0 0 0 0 0 0 0 0 0 0 0 0 0 3 6 8 10 13 31 33
426 217 235 150 77 89 61 34 73 89 68 83 35 104 132 131 83 40 184 266 94 43 28 1 0 0 0 0 0 0 0 0 0 0 0 0 0 0 1 4 9 9 18 33
92 218 186 133 140 115 65 49 98 92 99 112 170 217 206 244 112 225 382 394 310 181 51 1 0 0 0 0 0 0 0 0 0 0 0 0 0 0 0 1 6 9 8 21
306 193 106 37 115 40 0 8 0 17 117 190 201 409 298 252 258 300 430 468 382 305 130 18 1 0 0 0 0 0 0 0 0 0 0 0 0 0 0 0 1 5 6 10
336 289 63 5 24 3 91 84 113 127 148 248 271 306 349 433 505 379 239 156 280 294 212 93 17 0 0 0 0 0 0 0 0 0 0 0 0 0 0 0 0 0 0 2
340 313 84 1 26 44 61 205 261 258 192 357 417 412 401 371 312 383 54 64 170 238 142 70 4 0 0 0 0 0 0 0 0 0 0 0 0 0 0 0 0 0 0 0
323 247 168 97 31 77 161 365 336 302 180 297 364 509 446 223 106 38 0 21 65 71 27 12 0 0 0 0 0 0 0 0 0 0 0 0 0 0 0 0 0 0 0 0
335 298 29 38 99 137 495 377 228 187 385 319 270 280 332 86 14 5 27 24 43 25 4 0 0 0 0 0 0 0 0 0 0 0 0 0 0 0 0 0 0 0 0 0
86 133 191 340 206 214 474 353 260 555 587 580 435 290 399 241 12 0 1 7 3 1 0 0 0 0 0 0 0 0 0 0 0 0 0 0 0 0 0 0 0 0 0 0
345 558 577 802 702 664 796 1025 850 813 827 796 565 425 313 160 32 0 0 4 8 0 0 0 0 0 0 0 0 0 0 0 0 0 0 0 13 16 13 5 12 13 11 10
606 507 427 469 716 565 694 684 604 875 995 863 471 290 276 25 109 0 0 25 14 22 3 0 0 0 0 0 0 4 15 20 30 52 73 98 131 146 162 157 131 73 67 92
491 448 737 715 510 498 753 919 915 900 709 420 228 247 202 110 96 100 22 84 52 85 84 23 9 13 9 32 83 60 54 73 117 131 98 103 139 211 221 253 240 206 225 178
567 589 469 570 774 1367 1038 839 646 517 495 532 447 274 314 487 413 225 143 136 182 173 175 212 251 290 261 214 157 147 96 120 143 104 29 84 144 233 271 245 208 181 41 11
CIN
0 -17 -7 -7 -4 -10 0 -26 -9 -49 -146 -79 -28 -10 -100 -142 -152 -64 -35 -11 -3 -2 -16 0 0 0 0 0 0 0 0 0 0 0 0 0 0 0 0 -1 0 0 0 0
0 -3 0 0 0 0 -4 -7 -16 -99 -130 -102 -62 -40 -103 -133 -84 -80 -12 -2 -1 -4 -7 -83 0 0 0 0 0 0 0 0 0 0 0 0 0 0 -1 0 0 0 0 -1
0 0 0 -32 -34 -12 -10 -7 -28 -15 -97 -96 -65 -43 -90 -111 -97 -85 -44 -31 -3 -2 -2 -19 -18 0 0 0 0 0 0 0 0 0 0 0 0 -1 0 0 0 -1 0 -1
0 0 0 -30 -17 -15 -4 -81 -42 -44 -23 -1 -78 -2 -44 -79 -126 -93 -56 -46 -39 -17 -6 -5 -22 -4 0 0 0 0 0 0 0 0 0 0 -2 0 -1 0 0 -1 0 0
0 0 0 -5 -21 -52 -39 -83 -51 -57 -29 -48 -36 -12 -32 -63 -64 -86 -102 -53 0 -26 -1 -1 -4 -39 0 0 0 0 0 0 0 0 0 -1 -1 -1 -2 0 -1 -1 0 0
0 0 0 -101 -104 -63 -112 -82 -69 -62 -31 -2 -22 -43 -3 -18 -34 0 0 0 0 -25 -4 -4 -8 -51 0 0 0 0 0 0 0 0 -1 -1 -1 -1 -2 -1 -2 0 0 -1
0 0 -63 -108 -64 -98 -57 -18 -9 -4 -3 -4 -58 -59 0 -28 -65 -37 0 -82 -70 -43 -9 -7 -16 -94 0 0 0 0 0 0 0 0 0 0 -1 -1 -1 -1 -1 -2 0 0
-4 -7 -69 -83 -31 -7 -19 -11 -5 -3 -4 -5 -76 -2 -1 -55 -56 -57 -82 -52 -49 -57 -18 -20 -44 -6 0 0 0 0 0 0 0 0 0 0 0 -1 -1 -1 0 -1 0 0
0 -5 -64 -82 0 -28 -24 -27 -26 -13 -29 -11 -5 0 -21 -44 -79 -74 -62 -49 -22 -55 -26 -29 -34 0 0 0 0 0 0 0 0 0 0 -1 0 0 -1 0 0 -1 -1 -1
-2 -4 -26 -48 0 0 -47 -50 -16 -5 -6 -5 -4 0 0 0 -47 -62 -59 -47 -23 -21 -30 -58 -99 0 0 0 0 0 0 0 0 0 0 0 -1 -1 -1 0 0 -1 0 0
-25 -15 -9 -41 -17 -5 -41 -19 -33 -21 -11 -3 -4 -4 0 0 -50 -73 -58 -45 -37 -29 -37 -83 -66 0 0 0 0 0 0 0 0 0 0 0 -1 0 -1 0 -1 -1 -1 0
-41 -15 -6 -4 -58 -67 -29 -6 -10 -10 -4 -4 -22 -5 0 -33 -39 -62 -57 -82 -67 -69 -78 -138 0 0 0 0 0 0 0 0 0 0 0 0 0 -1 -1 0 0 0 0 -1
-73 -21 -7 -8 -25 -62 -20 -8 -20 -23 -20 -4 -3 -4 -51 -52 -54 -68 -75 -77 -86 -86 -99 0 0 0 0 0 0 0 0 0 0 0 0 0 -1 -2 -1 -1 -1 0 -1 0
-93 -29 -14 -8 -9 -7 -5 -9 -20 -22 -6 -6 -7 -8 -4 -27 -41 -61 -70 -93 -118 -95 -104 0 0 0 0 0 0 0 0 0 0 0 0 0 0 -1 -1 0 -1 -1 -1 0
-51 -13 -20 -8 -17 -17 -7 -5 -12 -25 -8 -3 -7 -5 -4 -18 -24 -42 -60 -65 -86 -107 -115 -81 0 0 0 0 0 0 0 0 0 0 0 0 0 0 0 -1 0 -1 -1 0
-102 -9 -20 -8 -21 -13 -6 -6 -11 -9 -6 -5 -6 -4 -5 -35 -39 -45 -43 -30 -22 -26 -64 -65 0 0 0 0 0 0 0 0 0 0 0 0 0 0 0 -1 0 -1 0 -1
-36 -12 -10 -4 -13 -12 0 -4 0 -25 -11 -14 -8 -10 -33 -26 -34 -25 -26 -28 -23 -13 -23 -77 -61 0 0 0 0 0 0 0 0 0 0 0 0 0 0 0 -1 -1 -1 0
-37 -20 -14 -7 -13 -9 -14 -41 -35 -24 -17 -18 -39 -37 -37 -31 -50 -48 -66 -60 -39 -37 -35 -58 -137 -9 0 0 0 0 0 0 0 0 0 0 0 0 0 0 0 0 -1 -1
-86 -19 -6 -4 -4 -4 -12 -15 -10 -8 -3 -39 -28 -33 -35 -47 -40 -60 -160 -149 -120 -93 -99 -146 -208 0 0 0 0 0 0 0 0 0 0 0 0 0 0 0 0 0 0 0
-65 -63 -7 -4 -16 -3 -5 -22 -50 -50 -3 -59 -60 -35 -32 -29 -11 -32 -1 -178 -194 -242 -242 -255 -85 0 0 0 0 0 0 0 0 0 0 0 0 0 0 0 0 0 0 0
-6 -6 -13 -5 -4 -5 -20 -40 -77 -12 -17 -40 -38 -34 -37 -35 -46 -155 -175 -216 -210 -229 -300 0 0 0 0 0 0 0 0 0 0 0 0 0 0 0 0 0 0 0 0 0
-11 -3 -2 -2 -2 -2 -56 -53 -28 -37 -54 -31 -36 -55 -47 -48 -66 0 -57 -169 -120 -134 0 0 0 0 0 0 0 0 0 0 0 0 0 0 0 0 0 0 0 -13 0 -46
-9 -7 -7 -11 -8 -87 -95 -56 -90 -81 -39 -23 -43 -48 -55 -47 -75 0 0 -148 -126 0 0 0 0 0 0 0 0 0 0 0 0 0 0 0 -66 -72 -74 -83 -85 -79 -78 -56
-52 -136 -36 -44 -40 -65 -75 -95 -90 -71 -51 -50 -71 -73 -63 -60 -30 -1 0 -100 -115 -123 -100 0 0 0 0 0 0 -103 -71 -59 -64 -57 -60 -70 -58 -57 -57 -46 -37 -49 -60 -26
-39 -105 -53 -39 -51 -47 -32 -49 -66 -62 -76 -78 -77 -80 -60 -59 -41 -33 -43 -75 -81 -99 -84 -104 -35 -30 -33 -45 -36 -35 -35 -44 -53 -65 -82 -79 -56 -49 -46 -44 -46 -50 -45 -35
-48 -23 -16 -3 -74 -42 -44 -62 -76 -61 -56 -47 -49 -39 -36 -40 -34 -36 -47 -69 -91 -85 -73 -76 -49 -32 -28 -33 -38 -44 -59 -59 -68 -89 -132 -84 -43 -33 -20 -16 -28 -50 -92 -62
Wind_Speed
18 16 13 10 10 10 9 12 14 15 14 13 11 12 15 15 13 13 13 12 12 12 13 13 14 15 18 20 24 27 30 27 25 24 23 22 22 23 23 24 25 27 28 29
15 13 11 10 12 15 15 16 17 16 14 12 12 12 14 14 13 12 12 10 11 11 12 12 12 14 16 19 22 25 28 26 23 23 22 21 21 21 21 23 24 27 27 28
15 15 12 13 17 18 17 14 16 13 15 13 11 11 12 11 11 9 9 9 10 10 11 10 11 12 15 18 20 23 25 23 22 21 21 20 19 18 21 22 24 25 26 27
16 13 13 16 16 11 15 14 15 16 12 7 11 5 11 10 10 10 10 10 10 9 10 11 11 11 13 16 18 20 22 21 21 20 21 22 20 21 21 20 23 23 26 27
10 10 12 14 15 14 16 17 16 15 13 8 12 7 16 11 8 10 12 11 12 12 11 11 11 11 13 15 16 18 20 20 20 19 20 18 20 19 20 20 20 23 25 26
13 13 12 12 15 15 17 17 17 15 15 9 19 7 8 13 7 9 10 11 12 12 12 12 12 12 12 14 15 17 18 19 20 19 19 18 19 19 20 20 20 21 23 25
7 14 12 13 15 14 12 12 12 17 16 16 21 13 9 15 14 9 9 10 11 11 11 11 11 12 12 13 14 15 16 17 19 19 18 18 18 17 18 19 21 19 22 24
9 9 6 10 11 11 10 14 22 21 28 28 18 18 22 15 13 9 9 10 11 10 9 10 10 11 11 12 12 14 15 15 18 19 19 18 18 17 16 20 19 20 20 22
10 12 7 10 11 10 12 11 19 16 16 15 20 17 12 14 12 10 8 9 9 9 9 9 10 10 11 11 12 12 14 14 15 17 18 18 18 18 18 18 17 19 19 19
12 11 10 12 10 13 12 16 18 15 25 25 22 20 22 22 17 12 9 8 8 8 7 8 9 10 10 11 12 12 12 13 14 15 16 17 18 18 17 17 18 17 18 18
8 10 11 12 12 18 15 14 18 21 20 26 24 25 18 21 19 14 9 7 7 7 7 7 8 9 9 10 11 12 11 11 12 12 14 15 16 16 17 16 16 17 16 17
9 9 9 13 15 15 16 23 17 24 24 22 23 22 15 18 17 15 12 10 7 7 7 7 7 8 8 9 11 12 12 11 11 11 11 12 14 14 15 16 15 15 16 15
5 7 11 11 11 11 12 13 16 21 21 22 24 23 15 16 16 15 13 11 9 6 6 6 6 6 7 8 10 11 12 12 11 11 10 11 11 13 15 15 15 14 14 15
7 12 14 19 20 18 15 14 15 14 20 23 19 23 19 16 15 15 13 12 10 7 5 4 5 5 5 7 9 11 12 13 12 11 11 12 12 12 13 13 13 13 14 15
9 13 10 14 17 16 19 20 16 13 14 19 25 24 22 17 15 15 14 11 10 8 5 3 2 2 3 6 8 11 11 13 12 11 11 13 13 13 13 12 13 13 13 14
12 14 11 12 14 17 15 17 18 16 16 17 20 23 15 16 16 16 15 13 10 8 6 3 2 2 2 4 7 10 11 11 11 11 11 12 13 13 14 12 11 12 12 12
11 12 12 18 15 18 20 19 21 21 19 19 22 22 16 15 17 19 19 17 14 10 8 8 5 3 2 4 7 9 10 10 10 11 12 11 12 13 13 12 12 11 12 12
12 12 15 21 19 21 18 19 18 20 19 16 14 14 17 18 19 19 21 23 20 16 10 7 6 4 4 6 7 9 11 9 9 10 11 11 11 11 12 12 12 12 11 11
16 13 16 20 19 22 22 16 19 22 23 20 15 14 18 17 18 19 24 24 23 20 14 11 9 7 6 6 9 10 11 10 9 10 11 11 10 10 10 10 11 12 12 10
14 16 17 17 21 25 24 19 19 19 21 20 18 17 16 17 16 21 25 24 23 20 16 14 12 11 9 9 10 11 11 10 11 11 11 11 9 9 9 10 10 11 11 10
14 16 19 18 20 22 19 17 17 21 20 19 18 16 15 16 19 19 20 22 21 19 18 16 15 13 12 12 12 13 12 11 11 9 9 10 8 10 10 10 10 11 11 12
18 16 14 17 20 21 15 15 18 17 16 18 19 16 16 15 14 14 16 18 18 18 17 16 16 15 15 14 13 13 12 12 11 8 10 13 13 12 12 12 12 12 14 14
18 17 18 14 19 18 14 17 15 15 16 17 17 17 14 13 12 12 14 14 15 15 16 15 15 15 15 14 13 13 14 15 15 13 13 13 16 16 15 14 14 14 16 16
17 17 17 18 16 18 17 13 14 14 14 15 17 19 16 14 12 11 11 11 12 13 14 14 15 15 14 14 13 12 13 13 14 14 14 15 16 17 14 15 15 15 16 17
20 15 17 19 15 17 15 18 17 15 14 16 19 19 20 18 14 12 11 10 9 10 12 13 14 15 14 15 15 14 14 15 14 14 14 18 20 20 21 19 17 17 17 19
17 18 18 17 16 14 16 17 16 15 17 19 20 21 22 21 20 15 13 10 9 10 12 14 15 16 18 19 18 21 22 21 22 19 18 19 23 23 24 21 22 20 18 19
Wind_Direction
153 141 133 174 169 199 147 104 91 88 99 125 121 118 124 132 141 142 136 121 115 115 105 95 81 75 65 55 43 37 27 34 42 43 47 49 49 46 45 43 39 34 31 30
130 143 138 148 123 97 98 77 66 75 97 151 121 123 115 135 151 150 141 129 117 111 112 106 95 79 62 50 47 42 34 37 46 47 49 53 53 49 48 43 41 35 34 33
177 46 114 109 96 74 81 75 64 71 84 96 129 138 136 146 146 132 132 135 132 114 112 111 104 89 63 51 46 45 42 46 50 53 51 55 57 57 47 43 40 37 36 34
160 59 91 118 104 123 80 70 65 62 114 168 104 155 114 120 141 141 142 139 137 124 118 113 106 94 73 53 50 50 47 50 51 52 50 51 54 50 47 47 39 41 36 36
347 57 109 113 67 84 62 63 60 59 79 136 102 167 50 87 127 136 140 126 117 116 114 108 103 96 73 60 59 53 50 52 50 53 52 57 51 52 49 48 46 43 41 39
330 5 23 84 42 40 63 55 43 47 51 96 31 125 99 57 99 109 126 129 120 113 103 103 98 94 80 67 63 58 52 51 49 52 52 53 50 50 49 46 48 45 43 41
27 345 13 76 38 54 62 79 53 31 39 27 19 43 49 30 48 84 101 126 127 122 107 103 97 95 85 72 65 61 57 54 49 50 52 52 52 52 51 49 45 47 44 42
336 2 20 91 52 36 55 33 0 8 341 343 28 22 5 37 43 76 116 115 126 126 118 107 96 93 84 77 68 60 58 56 49 47 48 50 50 53 55 46 48 47 45 43
325 329 360 354 21 65 24 39 11 15 18 23 11 22 46 44 49 55 81 120 111 118 113 103 97 84 78 75 71 64 57 56 53 47 48 49 50 50 51 49 50 45 47 45
315 332 334 338 11 355 0 13 359 16 352 353 360 0 3 12 27 50 80 103 108 110 107 94 92 80 77 75 66 66 61 56 53 50 47 47 47 49 50 50 47 47 46 45
320 323 338 339 331 321 341 354 353 348 355 346 350 352 15 9 18 34 60 78 88 88 92 92 85 77 75 72 64 58 59 53 52 52 48 47 44 47 47 47 46 45 45 45
308 330 327 330 337 342 335 316 349 336 340 343 344 346 17 17 18 19 27 35 52 63 71 87 90 82 72 62 53 49 48 46 47 48 47 47 42 43 45 42 44 45 43 45
321 329 316 333 337 336 337 340 339 336 337 339 338 343 15 12 15 16 19 20 31 49 61 75 81 82 73 59 46 40 40 39 41 43 44 42 40 37 37 39 41 44 43 43
345 324 311 311 318 324 341 341 340 343 335 335 339 335 351 3 10 15 17 22 25 33 44 75 80 74 64 50 37 33 32 31 35 38 37 31 33 34 33 38 40 43 43 39
351 326 339 330 321 330 331 335 341 338 334 332 332 334 341 354 2 9 11 18 20 23 25 36 34 44 40 32 27 26 28 24 29 33 32 26 28 32 32 39 39 41 42 39
341 332 345 343 338 334 342 342 340 339 335 333 332 330 350 357 0 1 5 7 5 2 11 21 18 26 21 25 18 17 19 20 24 24 27 28 28 28 29 37 41 38 38 39
339 346 343 327 347 338 333 342 343 339 339 337 332 341 352 352 354 352 356 0 358 355 351 350 359 19 40 21 16 14 16 19 24 19 21 26 26 25 28 34 35 34 32 34
331 336 337 324 335 325 348 355 353 347 349 350 349 352 350 347 350 356 356 354 354 354 3 11 15 30 37 31 22 18 17 25 24 16 16 22 24 26 27 32 30 28 27 26
309 326 327 323 325 328 338 356 352 346 346 353 0 355 351 355 353 352 357 355 355 358 9 14 20 34 47 39 25 16 16 20 26 20 16 20 28 27 27 28 24 22 20 18
317 312 318 325 319 319 332 349 348 351 341 356 0 357 359 357 358 358 353 2 4 9 20 25 34 46 46 35 31 20 17 18 13 16 20 25 33 28 24 20 16 14 11 5
309 312 310 313 316 322 345 356 4 341 346 356 1 12 8 360 352 354 8 13 23 26 32 44 50 48 43 37 29 21 18 14 17 30 27 23 27 14 9 5 3 360 355 349
303 310 314 316 316 319 359 4 351 357 359 359 0 13 16 28 29 33 27 25 30 32 35 41 47 42 38 44 41 32 32 27 36 44 23 8 3 3 1 356 352 348 346 343
307 307 314 318 325 335 357 345 5 3 359 359 4 12 22 22 22 25 22 25 29 33 33 36 34 34 33 37 38 37 30 20 16 16 13 3 353 350 347 342 338 337 339 336
311 311 311 317 328 326 339 357 354 356 3 3 3 3 8 9 13 17 19 22 23 25 24 25 23 23 26 31 36 35 23 20 8 0 356 351 345 341 336 333 331 329 331 331
310 317 309 310 322 332 344 347 348 356 3 360 356 0 4 5 2 360 3 6 11 16 17 17 15 14 17 17 18 16 11 3 358 350 344 347 346 341 338 334 331 327 324 327
305 304 307 316 327 331 343 350 359 3 2 357 357 357 358 357 355 358 356 358 1 5 5 4 7 6 2 2 6 2 0 357 349 349 346 343 343 342 340 336 334 331 321 320